Helicity
738 696 580 653 577 449 362 624 623 470 459 390 422 313 280 180 374 448 415 406 421 401 362 321 330 321 331 343 339 317 335 349 345 416 331 186 164 135 165 235 252 329 295
753 698 686 531 748 1001 550 284 490 634 497 411 241 359 326 -178 195 441 382 385 381 375 352 368 314 360 315 309 335 296 283 299 409 275 257 225 195 181 182 203 232 269 302
301 423 516 610 584 685 633 430 467 419 419 612 500 146 232 114 -128 481 389 429 388 336 332 333 305 282 283 311 321 279 250 227 284 247 207 266 222 271 250 256 231 224 263
-41 183 256 400 390 202 383 365 340 403 488 236 725 824 504 385 253 39 664 410 312 296 317 356 297 302 288 276 300 307 285 266 312 252 230 276 321 301 307 274 247 288 250
-10 -39 34 58 160 232 348 331 357 294 297 328 388 393 517 771 671 327 125 139 399 243 258 335 337 309 285 286 292 283 292 323 315 299 250 305 343 367 319 376 310 357 340
26 2 13 -40 -34 43 45 180 278 311 265 276 331 352 350 450 626 733 752 446 172 336 386 248 290 356 333 310 287 264 263 305 328 314 326 336 326 383 431 388 404 470 403
10 19 29 11 -15 -19 -7 114 183 211 225 257 251 298 331 337 466 556 609 452 389 155 499 334 198 336 346 293 296 271 268 257 255 333 324 315 313 362 394 458 435 434 420
-21 10 8 11 2 9 -1 13 25 32 61 183 216 192 205 280 399 427 526 624 685 581 534 343 471 568 494 356 345 279 316 289 298 275 225 219 275 288 371 389 359 440 524
-52 -21 -31 -30 -15 10 3 11 26 33 35 24 64 113 162 182 210 436 373 395 593 769 551 617 667 799 863 708 332 311 257 322 274 265 286 288 329 370 424 489 453 476 532
-57 -53 -58 -55 -36 -33 -15 1 -8 -2 13 -18 8 10 53 122 158 264 267 168 249 513 545 574 584 989 706 803 658 476 183 235 251 371 245 240 218 249 317 332 392 360 515
-35 -20 1 -44 -56 -36 -23 -30 -2 -17 -17 -11 -25 -11 -1 33 58 135 209 196 256 282 416 492 609 798 924 727 623 422 464 447 324 203 177 157 247 291 306 217 211 191 299
-19 21 26 -49 -50 -47 -17 -8 -4 1 1 16 13 -10 -32 -5 49 38 53 153 217 242 268 368 331 397 644 826 627 643 532 403 271 203 275 247 277 341 227 227 220 251 260
27 54 23 -13 -20 -6 -26 -4 -6 3 -3 9 32 25 25 8 -7 8 45 44 101 140 144 158 290 177 334 412 516 446 514 387 345 273 265 242 247 137 138 182 234 242 291
14 31 19 9 28 33 15 17 12 19 16 18 29 46 40 35 17 14 27 31 50 36 61 115 114 116 34 111 339 345 509 391 380 343 338 299 242 160 195 171 184 233 264
3 -2 10 16 19 32 47 31 19 24 23 29 20 20 52 60 31 30 39 50 51 41 34 43 79 111 150 116 117 198 256 296 447 498 350 281 259 355 286 214 215 216 199
-13 -12 -8 -6 6 13 32 56 30 18 24 21 23 16 23 17 35 32 20 20 20 15 43 51 69 87 118 129 109 126 211 238 211 314 351 242 311 268 347 270 228 191 186
23 27 24 9 5 9 23 25 54 70 31 14 11 28 43 39 40 37 16 6 4 2 43 68 74 81 126 143 162 177 170 152 152 145 226 237 220 342 357 267 231 206 236
21 30 36 41 31 19 15 19 24 28 74 89 45 32 24 32 43 54 28 17 8 4 39 48 71 87 89 107 140 151 165 159 144 157 178 165 185 185 247 371 300 257 177
11 22 35 43 39 21 18 30 33 34 29 29 29 -0 -2 18 35 37 44 22 25 41 56 51 54 70 86 83 84 104 123 145 157 177 175 181 160 162 192 203 205 191 237
17 21 28 28 16 11 12 16 30 21 19 3 -11 -4 1 24 22 54 59 53 48 51 65 65 67 56 64 65 75 75 84 108 125 146 164 172 177 204 179 149 157 163 173
16 18 8 41 25 23 17 14 13 13 8 -4 -10 -5 20 -5 26 40 55 62 53 46 48 44 36 37 36 42 50 60 76 85 97 115 125 138 151 154 161 190 206 224 236
42 38 36 32 25 11 13 11 8 -0 -5 -6 -3 -2 27 4 4 33 42 38 46 46 44 48 53 47 42 44 46 52 52 62 89 112 116 116 128 137 145 170 193 233 251
28 34 35 25 20 21 22 21 5 -5 -15 -17 -18 -4 12 20 26 19 29 41 40 43 40 34 32 37 31 37 47 55 57 60 74 88 97 116 116 121 151 165 176 197 214
40 40 30 40 47 43 18 -7 -18 -18 -20 -22 -14 -11 -2 8 25 32 34 38 24 24 25 16 3 4 14 19 24 33 46 61 77 80 75 99 97 110 145 176 208 204 206
42 47 44 51 55 25 -19 -24 -26 -21 -15 -22 -15 -16 -8 -2 19 22 19 29 40 27 30 22 20 23 19 21 18 21 27 35 41 52 81 77 73 87 123 163 195 212 214
39 41 43 52 54 8 -24 -24 -25 -25 -12 -13 -20 -19 -17 -9 11 28 31 27 25 24 30 33 43 52 33 19 19 23 23 25 28 22 38 49 53 71 104 134 148 183 187
Wind_Speed
50 46 37 37 44 45 35 54 46 54 59 75 85 77 73 100 87 90 86 84 80 78 75 73 73 72 73 73 73 71 70 66 75 71 77 64 59 56 57 51 50 43 41
53 45 35 26 38 39 42 47 32 43 50 70 62 58 64 64 110 94 96 89 81 81 80 76 76 74 76 70 71 72 73 66 65 71 57 62 63 59 56 53 53 54 49
53 42 42 34 41 35 40 41 40 41 48 51 58 67 66 70 82 85 99 96 86 86 84 80 75 81 80 77 72 76 74 72 76 78 75 67 65 65 60 57 54 53 50
59 48 38 47 42 39 38 34 39 40 38 33 40 47 52 54 65 68 82 94 86 88 90 89 83 79 80 77 75 76 73 73 71 73 81 78 74 71 63 60 58 57 51
59 54 51 49 46 52 57 45 44 49 43 40 41 41 41 43 54 69 69 83 69 86 93 90 85 83 72 71 72 81 76 75 77 75 75 73 72 73 66 66 65 64 62
63 60 58 53 49 52 55 48 47 52 50 47 49 49 50 51 56 55 58 68 61 73 86 91 93 80 76 71 67 71 78 80 80 77 77 79 74 68 65 64 66 68 70
70 66 66 62 59 60 57 57 55 55 54 54 53 50 50 53 57 57 55 50 66 69 61 76 93 92 82 81 76 70 72 75 73 77 82 79 78 77 73 75 76 75 76
68 71 71 71 64 63 63 61 58 56 54 54 53 53 52 55 57 55 54 54 58 56 54 63 66 76 84 85 77 80 80 77 75 71 73 75 78 76 75 77 76 78 80
68 66 68 71 69 68 65 63 63 60 59 59 55 53 52 54 53 55 53 50 54 53 45 57 53 66 70 76 82 72 78 81 83 83 84 80 77 77 75 75 80 71 74
81 69 72 66 67 64 64 63 61 60 60 59 58 56 56 57 58 56 54 52 52 52 55 58 58 66 68 59 64 60 68 71 70 77 83 81 78 65 65 70 76 71 75
82 80 77 70 68 67 65 64 64 61 61 61 60 59 58 60 59 59 57 54 54 53 54 59 57 62 65 62 48 58 57 65 68 55 65 72 71 59 56 63 59 60 64
84 78 76 72 74 74 69 67 67 67 64 62 62 61 60 61 61 58 56 58 55 56 58 57 57 57 61 60 60 52 54 57 62 63 63 56 53 54 51 61 62 61 59
80 79 76 75 77 74 72 72 69 68 67 67 67 65 64 63 60 61 64 63 61 63 64 63 64 64 65 63 63 53 53 55 59 64 58 53 51 53 56 60 59 62 62
79 80 78 77 76 73 72 71 69 71 70 69 69 70 69 68 67 66 66 65 65 63 63 65 67 68 66 62 67 63 54 53 57 61 62 54 50 51 52 51 55 56 63
79 78 75 75 74 74 72 70 67 69 69 71 71 71 74 72 69 70 70 68 67 65 65 61 63 66 74 74 74 71 68 64 64 61 59 61 52 60 60 57 56 51 50
79 76 76 74 74 73 73 72 66 67 68 69 71 71 71 71 73 71 69 67 64 61 59 61 62 62 66 68 76 77 72 76 74 73 63 62 62 61 65 61 59 62 63
76 76 75 75 74 74 73 73 75 73 68 67 69 71 73 76 75 74 73 70 65 58 56 59 63 63 64 68 70 70 70 74 74 82 80 76 65 71 71 72 68 67 68
77 75 73 74 75 75 74 73 72 72 75 76 72 74 75 75 76 75 71 68 65 61 60 59 61 59 59 64 66 69 67 69 75 76 78 75 74 82 85 81 75 71 71
77 75 71 70 73 75 74 73 72 72 73 74 76 72 73 74 74 71 67 64 65 65 63 63 63 63 61 57 57 60 63 65 70 73 73 77 79 77 79 83 84 79 81
72 71 71 72 72 73 73 73 71 71 72 73 74 75 75 76 72 70 67 65 64 64 63 64 62 64 67 66 65 61 60 61 62 66 71 76 78 78 79 82 80 83 78
71 72 73 73 73 74 73 71 70 69 71 72 72 70 71 71 70 69 68 66 65 65 66 65 65 67 67 68 69 69 68 69 67 64 64 68 73 80 82 82 82 80 79
69 70 70 71 72 72 71 67 67 66 69 69 69 68 68 66 65 65 66 66 66 66 67 67 69 69 70 71 70 69 72 71 71 69 68 69 70 73 73 75 77 75 74
70 73 72 72 71 71 68 65 64 63 64 65 65 66 64 64 64 64 65 65 65 65 64 65 67 70 70 70 70 71 73 74 73 72 75 75 74 74 74 75 74 74 73
70 70 73 68 68 68 67 63 59 60 61 62 62 62 61 62 63 63 64 64 64 65 65 66 67 69 71 72 71 71 72 72 71 70 71 72 74 74 73 76 76 75 74
67 67 67 66 62 69 64 58 58 59 58 59 58 57 58 59 61 61 63 63 64 65 66 67 67 68 68 71 72 72 71 72 70 66 64 67 69 70 73 74 75 75 74
64 64 62 61 60 68 61 59 58 58 56 54 54 55 57 58 60 61 63 64 66 66 68 69 70 70 68 64 63 66 66 65 63 62 62 62 65 66 66 69 70 71 70
Wind_Direction
331 320 305 288 285 277 267 287 268 262 265 255 242 236 236 238 229 229 228 229 231 232 235 237 239 243 248 250 252 255 259 265 272 272 263 253 255 254 260 259 260 254 248
342 343 303 314 300 297 281 308 301 276 273 267 268 246 244 265 242 225 232 232 229 233 235 239 242 246 249 250 251 252 257 262 270 265 260 252 253 255 258 261 262 262 261
346 333 338 329 340 329 316 303 304 305 288 287 273 285 266 277 265 240 233 234 233 236 238 240 242 247 250 250 250 254 257 258 261 259 258 259 258 260 260 265 263 264 264
350 346 333 340 340 340 320 323 332 315 314 317 301 289 279 272 270 267 248 238 237 238 242 244 246 247 249 249 249 252 254 253 255 255 257 258 261 261 259 260 263 264 263
352 350 341 345 339 336 334 328 332 333 311 311 314 314 309 302 294 273 275 254 248 239 245 245 248 248 243 240 248 252 250 249 252 252 255 258 259 260 255 262 262 264 264
352 351 348 346 337 337 335 335 325 324 323 316 321 314 308 307 300 292 280 267 260 258 252 248 250 246 245 238 239 247 249 248 250 252 253 256 255 256 259 258 260 262 264
348 348 351 346 344 341 335 338 333 327 322 319 319 316 311 309 304 301 294 278 270 266 260 268 251 251 246 248 244 240 244 245 246 251 254 254 256 256 257 260 260 260 265
341 344 347 348 342 342 345 342 335 328 327 320 316 311 310 308 307 309 302 292 283 281 280 268 265 254 253 247 243 245 249 249 248 249 254 258 259 259 255 257 259 264 268
335 335 339 342 341 340 340 339 333 330 328 329 320 314 310 309 315 313 306 297 289 289 287 277 277 270 265 257 250 245 249 252 254 256 261 261 262 260 258 260 260 262 265
339 327 337 334 340 335 335 333 336 332 326 327 327 320 319 313 314 315 311 300 293 291 291 285 282 274 279 273 262 258 250 256 260 259 262 268 262 260 255 255 262 259 260
335 333 337 346 332 331 331 334 332 331 327 324 325 323 320 319 317 314 315 297 293 293 292 288 284 275 278 273 273 262 265 269 267 262 263 263 264 263 259 257 256 255 263
336 331 328 338 337 332 326 326 332 329 324 324 322 323 322 320 315 313 313 306 308 298 293 290 285 287 277 276 270 272 273 273 272 268 266 266 267 262 260 257 258 259 262
339 336 336 335 330 328 325 323 323 322 323 322 321 319 318 322 319 313 308 308 304 297 290 288 287 284 279 277 276 269 276 274 272 271 270 274 276 276 262 262 263 260 262
338 337 336 334 331 330 330 329 328 326 319 319 317 316 316 319 320 317 314 311 305 301 298 293 287 282 274 278 275 273 276 275 274 270 271 276 273 272 267 265 263 263 261
336 335 338 336 334 331 330 328 329 327 324 318 314 314 314 314 321 320 315 311 307 302 297 298 294 288 280 276 274 273 272 270 274 275 272 271 273 269 268 268 268 266 265
338 334 333 331 330 329 329 327 329 330 326 321 318 318 317 314 310 310 313 314 313 307 303 297 294 290 286 278 272 273 277 271 269 268 271 273 274 271 269 270 270 267 265
344 344 342 335 329 327 328 327 324 322 328 325 320 317 316 313 312 309 304 303 306 307 304 300 293 293 291 286 283 282 279 275 273 265 268 271 274 270 269 266 269 267 266
342 344 345 342 335 328 323 321 321 323 321 319 322 320 316 315 315 311 309 307 304 300 299 299 295 295 295 289 287 282 282 279 274 272 270 271 272 266 264 265 267 267 265
340 342 346 347 341 333 329 325 321 318 318 319 319 320 322 319 315 313 312 308 303 301 299 296 293 293 292 293 292 289 286 283 278 276 274 272 269 267 265 265 264 266 265
350 347 347 347 343 337 332 328 326 323 320 318 318 318 320 320 318 315 313 309 305 302 301 298 298 294 290 289 289 289 290 286 282 278 276 273 271 268 266 265 266 265 267
357 354 351 349 343 337 334 331 328 327 324 321 320 320 318 317 317 316 314 311 307 305 301 301 299 295 292 290 287 285 284 283 282 281 279 276 272 269 267 267 268 269 269
2 1 359 355 350 346 340 337 332 330 325 322 323 324 321 320 318 315 313 312 310 305 301 299 298 295 292 289 287 286 283 282 280 278 277 277 276 275 272 270 269 269 268
6 5 4 0 359 355 349 340 331 326 324 323 324 324 326 322 321 322 320 317 314 310 309 305 300 298 297 293 289 285 283 281 280 278 277 277 275 275 273 270 269 268 267
7 10 8 9 11 5 348 328 322 322 323 324 325 326 326 323 319 323 324 324 325 322 319 317 312 306 302 298 295 291 288 285 283 281 278 277 277 275 273 270 269 267 267
11 13 14 16 18 2 336 327 326 323 321 321 320 319 320 321 322 322 325 324 324 327 328 326 323 319 313 306 300 295 292 288 286 284 283 281 279 278 275 272 269 267 265
11 15 18 21 22 352 330 327 327 328 323 319 318 318 320 321 322 325 327 327 329 330 331 330 327 325 324 322 315 307 300 295 291 287 284 283 280 280 278 274 270 267 265